Terminal Aerodrome Forecast
Issued by NWS

Home | Current Version | Previous Version | Text Only | Print | Product List | Glossary On
Versions: 1 2 3 4 5 6 7 8 9 10 11 12 13 14 15 16 17 18 19 20 21 22 23 24 25 26 27 28 29 30 31 32
000
FTAK31 PAFA 211747
TAFAOT
TAF
PAOT 211747Z 2118/2218 25012KT P6SM SCT015 BKN120
      TEMPO 2118/2121 BKN015=

USA.gov is the U.S. government's official web portal to all federal, state and local government web resources and services.